Location: *
(51.0333°S, 178.4667°E)
Time: 01:04:49
(UTC+00:00)

CZ-4 R/B - Pass Details

Date: 15 November 2019
Orbit: 530 x 601 km, 97.7° (Epoch: 14 December)

Event Time Altitude Azimuth Distance (km) Brightness Sun altitude
Rises 08:26:19 0° 175° (S) 2,848 5.5 -7.4°
Reaches altitude 10° 08:28:42 10° 186° (S) 1,950 4.9 -7.7°
Maximum altitude 08:32:18 28° 244° (WSW) 1,159 3.9 -8.1°
Drops below altitude 10° 08:35:55 10° 302° (WNW) 1,955 4.3 -8.5°
Sets 08:38:19 0° 314° (NW) 2,856 5.0 -8.8°
